Milford, UT

5:56 PM MST on December 05, 2016 (GMT -0700)
Milford Municipal

Weather History for KMLF - August, 2014

Change the Weather History Date:

Thursday, August 28, 2014

  Actual Average Record
Temperature  
Mean Temperature 68 °F -  
Max Temperature 86 °F 86 °F 96 °F (2001)
Min Temperature 50 °F 51 °F 39 °F (2004)
Cooling Degree Days 3    
Growing Degree Days 18 (Base 50)    
Moisture  
Dew Point 42 °F    
Average Humidity 43    
Maximum Humidity 83    
Minimum Humidity 9    
Precipitation  
Precipitation 0.00 in - - ()
Sea Level Pressure  
Sea Level Pressure 30.05 in    
Wind  
Wind Speed 6 mph (South)    
Max Wind Speed 14 mph    
Max Gust Speed 24 mph    
Visibility 10 miles    
Events      
Averages and records for this station are not official NWS values.
T = Trace of Precipitation, MM = Missing Value Source: NWS Daily Summary

Daily Weather History Graph

Daily Weather History Graph

Search for Another Location

Airport or City:

Trip Planner

Search our weather history database for the weather conditions in past years. The results will help you decide how hot, cold, wet, or windy it might be!

Date:

Astronomy

Aug. 28, 2014 Rise Set
Actual Time 6:58 AM MDT 8:07 PM MDT
Civil Twilight 6:30 AM MDT 8:35 PM MDT
Nautical Twilight 5:58 AM MDT 9:07 PM MDT
Astronomical Twilight 5:23 AM MDT 9:41 PM MDT
Moon 9:51 AM MDT (8/28) 9:37 PM MDT (8/28)
Length of Visible Light 14h 04m
Length of Day
13h 09m
Waxing Crescent, 9% of the Moon is Illuminated
Aug 28
Waxing Crescent
Sep 2
First Quarter
Sep 8
Full
Sep 15
Last Quarter
Sep 24
New

Hourly Weather History & Observations

Time (MDT) Temp. Dew Point Humidity Pressure Visibility Wind Dir Wind Speed Gust Speed Precip Events Conditions
12:52 AM 60.1 °F 48.0 °F 64% 30.10 in 10.0 mi Calm Calm - N/A   Clear
1:52 AM 57.0 °F 48.0 °F 72% 30.10 in 10.0 mi SSW 4.6 mph - N/A   Clear
2:52 AM 54.0 °F 46.9 °F 77% 30.10 in 10.0 mi South 3.5 mph - N/A   Clear
3:52 AM 53.1 °F 46.9 °F 80% 30.11 in 10.0 mi SSW 6.9 mph - N/A   Clear
4:52 AM 52.0 °F 46.0 °F 80% 30.11 in 10.0 mi South 3.5 mph - N/A   Clear
5:52 AM 51.1 °F 46.0 °F 83% 30.11 in 10.0 mi SW 4.6 mph - N/A   Clear
6:52 AM 51.1 °F 44.1 °F 77% 30.12 in 10.0 mi South 6.9 mph - N/A   Clear
7:52 AM 53.1 °F 45.0 °F 74% 30.14 in 10.0 mi South 11.5 mph - N/A   Clear
8:52 AM 60.8 °F 48.2 °F 63% 30.27 in 10.0 mi South 8.1 mph - N/A   Clear
9:52 AM 66.0 °F 46.9 °F 50% 30.12 in 10.0 mi South 8.1 mph - N/A   Clear
10:52 AM 73.0 °F 44.1 °F 35% 30.11 in 10.0 mi South 9.2 mph - N/A   Clear
11:52 AM 77.0 °F 44.1 °F 31% 30.09 in 10.0 mi SSW 8.1 mph - N/A   Clear
12:52 PM 80.1 °F 39.9 °F 24% 30.06 in 10.0 mi Calm Calm - N/A   Clear
1:52 PM 82.9 °F 37.9 °F 20% 30.04 in 10.0 mi North 11.5 mph 16.1 mph N/A   Clear
2:52 PM 84.9 °F 36.0 °F 17% 30.01 in 10.0 mi NNE 13.8 mph 20.7 mph N/A   Clear
3:52 PM 84.0 °F 34.0 °F 17% 30.00 in 10.0 mi North 11.5 mph 24.2 mph N/A   Clear
4:52 PM 86.0 °F 36.0 °F 17% 29.98 in 10.0 mi NNE 11.5 mph - N/A   Clear
5:52 PM 84.9 °F 36.0 °F 17% 29.97 in 10.0 mi NE 13.8 mph - N/A   Clear
6:52 PM 82.9 °F 36.0 °F 19% 29.96 in 10.0 mi ENE 11.5 mph - N/A   Clear
7:52 PM 79.0 °F 37.0 °F 22% 29.96 in 10.0 mi NE 5.8 mph - N/A   Clear
8:52 PM 72.0 °F 39.0 °F 30% 29.98 in 10.0 mi East 3.5 mph - N/A   Clear
9:52 PM 66.9 °F 41.0 °F 39% 29.99 in 10.0 mi SSW 3.5 mph - N/A   Clear
10:52 PM 64.9 °F 42.1 °F 43% 29.98 in 10.0 mi West 8.1 mph - N/A   Clear
11:52 PM 63.0 °F 41.0 °F 45% 29.97 in 10.0 mi NW 3.5 mph - N/A   Clear